TIME,DELAY(SENSOR),PRES,OXYGEN,RAWTEMP,T(OPTODE),TCPHASE,FLUOR,BETA(BETA700),BETA(BETA412),BETA(BETA440),CDOM,C(CSC),ED(ED412.20),ED(ED444.00),ED(ED489.60),ED(ED554.30),LU(LU412.10),LU(LU443.90),LU(LU489.70),LU(LU554.70),COMP,TILTX,TILTY,CHECK
1339211960,5809,911.1099853515625000,33.5328598022460940,566.6503906250000000,4.2796039581298830,56.5781402587890600,55,98,101,78,83,15536,0,0,0,0,2147123163,2147776027,2147572397,2147570102,2859,2,13,44400
1339215556,5809,979.2100219726562000,39.4421882629394500,573.0283203125000000,4.0814170837402340,55.7326889038085940,55,100,104,79,84,15545,0,0,0,0,2147124937,2147777810,2147572233,2147568850,3347,2,13,52889
1339219156,5809,982.1599731445312000,40.7361488342285160,574.4141845703125000,4.0383028984069820,55.5522308349609400,55,98,101,77,84,15539,0,0,0,0,2147124571,2147773156,2147574006,2147570249,786,2,13,46205
1339222756,5808,985.2299804687500000,41.3637619018554700,576.1776123046875000,3.9834270477294920,55.4791717529296900,55,99,102,78,83,15542,0,0,0,0,2147124123,2147774774,2147575067,2147569590,308,2,13,8019
1339226356,5815,992.4899902343750000,42.1475906372070300,576.9006958007812000,3.9609150886535645,55.3753089904785160,55,97,101,77,84,15541,0,0,0,0,2147123958,2147777188,2147572169,2147571584,34,2,13,43763
1339229956,5809,992.9799804687500000,41.3633995056152340,576.5952758789062000,3.9704229831695557,55.4863700866699200,55,98,101,78,84,15538,0,0,0,0,2147121033,2147778788,2147575067,2147570029,339,2,13,57828
1339233556,5808,997.0599975585938000,41.1777114868164060,576.5941772460938000,3.9704570770263670,55.5097389221191400,55,99,101,78,83,15541,0,0,0,0,2147124443,2147774436,2147572534,2147568054,182,2,13,24952
1339237156,5811,1008.9199829101562000,40.8454895019531250,575.3178100585938000,4.0101871490478520,55.5496711730957000,55,99,101,79,84,15537,0,0,0,0,2147123968,2147775113,2147578358,2147572086,3116,2,13,28179
1339240756,5809,1007.4000244140625000,40.8279800415039060,575.4107055664062000,4.0072960853576660,55.5473785400390600,55,98,101,78,84,15542,0,0,0,0,2147123876,2147771657,2147575140,2147566226,3141,2,13,52685
1339244356,5810,1008.4799804687500000,40.9493103027343750,575.8010864257812000,3.9951460361480713,55.5353507995605500,55,100,101,78,83,15538,0,0,0,0,2147124342,2147775442,2147570724,2147570157,193,2,13,61952
1339247956,5809,1011.1199951171875000,40.8774299621582000,575.5861206054688000,4.0018391609191895,55.5477218627929700,55,101,101,78,84,15541,0,0,0,0,2147123337,2147773842,2147572973,2147571236,176,2,13,43636
1339251556,5807,1007.9500122070312000,40.8358993530273440,575.7144775390625000,3.9978389739990234,55.5500183105468750,55,97,101,78,85,15537,0,0,0,0,2147124251,2147777362,2147575936,2147572013,559,2,13,12456
1339255156,5810,1007.2999877929688000,40.3020210266113300,575.5671997070312000,4.0024261474609375,55.6289100646972660,54,98,100,78,83,15535,0,0,0,0,2147127213,2147776000,2147574189,2147572187,69,2,13,23351
1339258756,5810,1002.7299804687500000,40.4088401794433600,575.4758300781250000,4.0052700042724610,55.6128883361816400,55,100,102,78,84,15539,0,0,0,0,2147125933,2147767835,2147578112,2147570212,355,2,13,5955
1339262356,5810,1002.1599731445312000,40.9869194030761700,576.6013793945312000,3.9702320098876953,55.5398406982421900,55,98,101,77,84,15537,0,0,0,0,2147126317,2147772553,2147571501,2147571090,3584,2,13,64148
1339265956,5808,1008.8599853515625000,41.9665794372558600,578.0858764648438000,3.9240090847015380,55.4105682373046900,56,99,102,78,84,15536,0,0,0,0,2147125174,2147774317,2147573814,2147571264,208,2,13,3194
1339269556,5810,1001.2199707031250000,41.4726600646972660,578.0136108398438000,3.9262599945068360,55.4830818176269500,55,101,102,79,83,15537,0,0,0,0,2147121618,2147777188,2147574272,2147572278,208,2,13,12055
1339273156,5809,1005.4600219726562000,42.7879409790039060,578.6857910156250000,3.9053230285644530,55.3034095764160160,55,98,101,78,83,15533,0,0,0,0,2147124498,2147777929,2147570550,2147566729,3171,2,13,61713
1339276756,5809,1010.7800292968750000,41.9803199768066400,577.7625732421875000,3.9340760707855225,55.4042587280273440,55,98,102,78,84,15533,0,0,0,0,2147123373,2147772544,2147573321,2147570395,13,2,13,58715
1339280356,5810,1006.9199829101562000,41.2362289428710940,577.2326049804688000,3.9505810737609863,55.5125999450683600,55,99,101,77,84,15535,0,0,0,0,2147122724,2147772918,2147574208,2147573046,288,2,13,36380
1339283956,5809,1009.4799804687500000,41.5364608764648440,577.1143188476562000,3.9542639255523680,55.4670410156250000,55,99,103,78,85,15534,0,0,0,0,2147125568,2147772352,2147572032,2147570669,363,2,13,50602
1339287556,5810,1011.3200073242188000,41.3224792480468750,577.1588745117188000,3.9528770446777344,55.4942817687988300,56,98,101,79,83,15535,0,0,0,0,2147125769,2147777526,2147571821,2147567808,456,2,13,17897
1339291156,5810,1016.8300170898438000,40.6063919067382800,575.5728759765625000,4.0022487640380860,55.5861816406250000,55,97,101,77,84,15531,0,0,0,0,2147122761,2147775414,2147573440,2147570660,3549,2,13,16617
1339294756,5809,1009.3200073242188000,40.1368408203125000,575.7941284179688000,3.9953649044036865,55.6595993041992200,55,98,102,78,83,15534,0,0,0,0,2147122870,2147768182,2147575350,2147570925,739,2,13,27
1339298356,5807,1020.1799926757812000,39.9708290100097660,575.3408813476562000,4.0094680786132810,55.6799011230468750,56,98,102,79,85,15532,0,0,0,0,2147122505,2147775945,2147575789,2147569307,169,2,13,9358
1339301956,5809,1015.7100219726562000,39.4338302612304700,575.7623901367188000,3.9963510036468506,55.7597999572753900,55,97,101,79,84,15530,0,0,0,0,2147125220,2147774016,2147577289,2147572772,126,2,13,28845
1339305556,5809,1012.5700073242188000,39.7572593688964840,576.1613769531250000,3.9839289188385010,55.7175788879394500,55,97,101,78,84,15533,0,0,0,0,2147125595,2147772516,2147575862,2147570313,423,2,13,61136
1339309156,5810,1002.3099975585938000,40.7917594909668000,577.5117797851562000,3.9418849945068360,55.5780296325683600,55,98,103,79,83,15531,0,0,0,0,2147123446,2147771611,2147573330,2147573348,461,3,13,56293
1339312756,5813,1010.5800170898438000,41.6536102294921900,577.8629150390625000,3.9309539794921875,55.4535217285156250,55,98,101,78,85,15531,0,0,0,0,2147127524,2147776704,2147573942,2147569234,3189,2,13,22314
1339316356,5811,1013.8699951171875000,41.9107704162597660,577.8646850585938000,3.9308969974517822,55.4161796569824200,54,100,102,78,83,15530,0,0,0,0,2147124443,2147770998,2147572608,2147567424,7,2,13,60139
1339319956,5812,1009.5900268554688000,41.4868507385253900,578.4368286132812000,3.9130799770355225,55.4846191406250000,54,100,103,77,84,15530,0,0,0,0,2147124525,2147771766,2147571995,2147570395,273,2,13,28245
1339323556,5812,1010.3499755859375000,41.1195793151855500,578.1284790039062000,3.9226799011230470,55.5395202636718750,55,97,102,78,83,15529,0,0,0,0,2147120978,2147773824,2147575552,2147570953,50,2,13,8956
1339327156,5809,1010.7100219726562000,41.9296607971191400,577.6184082031250000,3.9385681152343750,55.4120101928710940,54,99,102,78,84,15530,0,0,0,0,2147122962,2147775552,2147572306,2147572608,526,2,13,62239
1339330756,5811,1008.2600097656250000,41.6661415100097660,578.8784179687500000,3.8993239402770996,55.4648513793945300,55,98,101,78,84,15529,0,0,0,0,2147124608,2147772434,2147574235,2147572379,18,2,13,64579
1339334356,5808,1014.1099853515625000,41.9692802429199200,577.9780273437500000,3.9273700714111330,55.4088706970214840,54,98,101,80,84,15531,0,0,0,0,2147124278,2147778358,2147572406,2147568722,3524,2,13,28475
1339337956,5807,1011.5200195312500000,41.2941703796386700,578.0914916992188000,3.9238340854644775,55.5083503723144500,56,100,101,79,84,15531,0,0,0,0,2147120073,2147774985,2147568932,2147575058,125,2,13,61991
1339341556,5808,1020.7299804687500000,41.8065109252929700,577.3248901367188000,3.9477059841156006,55.4272918701171900,55,98,100,78,84,15513,0,0,0,0,2147121142,2147773668,2147574025,2147570230,3591,2,13,60185
1339345156,5809,1018.5999755859375000,39.6182098388671900,576.7352905273438000,3.9660639762878420,55.7453384399414060,55,100,101,78,83,15529,0,0,0,0,2147124818,2147773988,2147569718,2147570953,299,2,13,63807
1339348756,5810,1011.6400146484375000,39.9449882507324200,577.0972900390625000,3.9547939300537110,55.7034492492675800,54,101,101,78,84,15530,0,0,0,0,2147122477,2147775945,2147572105,2147569846,487,3,13,60467
1339352356,5809,1010.3699951171875000,40.8893394470214840,578.6486206054688000,3.9064810276031494,55.5749893188476560,55,97,101,78,82,15528,0,0,0,0,2147121051,2147775341,2147573577,2147572288,180,2,13,30899
1339355956,5810,1016.5100097656250000,41.7954101562500000,578.0838012695312000,3.9240739345550537,55.4362602233886700,54,98,101,78,84,15528,0,0,0,0,2147125531,2147775168,2147577124,2147568722,666,2,13,14886
1339356355,5809,1016.9199829101562000,41.8961715698242200,577.6704711914062000,3.9369449615478516,55.4163398742675800,55,98,101,77,84,15528,0,0,0,0,2147125092,2147771894,2147575222,2147571227,3551,2,13,13998
